Location: Bucharest
(44.4268°N, 26.1025°E)
Time: 10:15:03
(UTC+03:00)

SPROUT - Pass Details

Date: 30 June 2022
Orbit: 588 x 598 km, 97.9° (Epoch: 15 August)

Event Time Altitude Azimuth Distance (km) Brightness Sun altitude
Exits shadow 03:07:59 18° 265° (W) 1,450 ? -18.0°
Maximum altitude 03:08:05 18° 267° (W) 1,449 ? -18.0°
Drops below altitude 10° 03:11:00 10° 312° (NW) 1,923 ? -17.7°
Sets 03:13:45 0° 331° (NNW) 2,830 ? -17.5°
